TimeCDT,TemperatureF,Dew PointF,Humidity,Sea Level PressureIn,VisibilityMPH,Wind Direction,Wind SpeedMPH,Gust SpeedMPH,PrecipitationIn,Events,Conditions,WindDirDegrees,DateUTC
12:15 AM,65.3,62.1,89,29.94,10.0,SSW,4.6,-,N/A,,Scattered Clouds,210,2013-10-04 05:15:00
12:35 AM,65.3,61.5,88,29.94,10.0,SSW,3.5,-,N/A,,Scattered Clouds,200,2013-10-04 05:35:00
12:55 AM,65.3,61.5,88,29.94,10.0,SSW,8.1,-,N/A,,Clear,200,2013-10-04 05:55:00
1:15 AM,65.5,61.5,87,29.94,10.0,SSW,5.8,-,N/A,,Clear,210,2013-10-04 06:15:00
1:35 AM,65.8,61.7,86,29.95,10.0,SW,3.5,-,N/A,,Mostly Cloudy,230,2013-10-04 06:35:00
1:55 AM,65.3,61.7,88,29.95,10.0,Calm,Calm,-,N/A,,Mostly Cloudy,0,2013-10-04 06:55:00
2:15 AM,64.8,61.2,88,29.94,10.0,Calm,Calm,-,N/A,,Clear,0,2013-10-04 07:15:00
2:35 AM,64.0,61.2,90,29.93,10.0,South,3.5,-,N/A,,Clear,180,2013-10-04 07:35:00
2:55 AM,65.1,61.7,89,29.93,10.0,South,5.8,-,N/A,,Clear,190,2013-10-04 07:55:00
3:15 AM,66.2,61.7,85,29.93,10.0,South,5.8,-,N/A,,Clear,190,2013-10-04 08:15:00
3:35 AM,66.4,62.1,86,29.94,10.0,SSW,5.8,-,N/A,,Clear,210,2013-10-04 08:35:00
3:55 AM,67.5,62.6,84,29.94,10.0,SSW,8.1,-,N/A,,Clear,200,2013-10-04 08:55:00
4:15 AM,67.5,62.2,83,29.95,10.0,SSW,3.5,-,N/A,,Clear,210,2013-10-04 09:15:00
4:35 AM,66.7,62.1,85,29.96,10.0,Calm,Calm,-,N/A,,Clear,0,2013-10-04 09:35:00
4:55 AM,66.0,61.9,86,29.96,10.0,SSW,3.5,-,N/A,,Clear,200,2013-10-04 09:55:00
5:15 AM,66.4,62.2,86,29.97,10.0,Calm,Calm,-,N/A,,Scattered Clouds,0,2013-10-04 10:15:00
5:35 AM,66.2,62.6,88,29.97,10.0,Calm,Calm,-,N/A,,Mostly Cloudy,0,2013-10-04 10:35:00
5:55 AM,66.9,62.4,85,29.98,10.0,Calm,Calm,-,N/A,,Mostly Cloudy,0,2013-10-04 10:55:00
6:15 AM,65.7,62.1,88,29.99,10.0,North,4.6,-,N/A,,Mostly Cloudy,350,2013-10-04 11:15:00
6:35 AM,65.5,62.2,89,29.99,10.0,Calm,Calm,-,N/A,,Overcast,0,2013-10-04 11:35:00
6:55 AM,65.3,62.6,91,29.98,10.0,Calm,Calm,-,N/A,,Overcast,0,2013-10-04 11:55:00
7:15 AM,65.3,62.6,91,29.97,10.0,Calm,Calm,-,N/A,,Overcast,0,2013-10-04 12:15:00
7:35 AM,66.0,63.0,90,29.97,10.0,SSW,3.5,-,N/A,,Overcast,210,2013-10-04 12:35:00
7:55 AM,66.6,63.0,88,29.98,10.0,Calm,Calm,-,N/A,,Overcast,0,2013-10-04 12:55:00
8:15 AM,67.1,63.3,88,29.98,10.0,South,3.5,-,N/A,,Overcast,180,2013-10-04 13:15:00
8:35 AM,67.6,63.5,87,29.98,10.0,South,3.5,-,N/A,,Overcast,180,2013-10-04 13:35:00
8:55 AM,68.0,64.0,87,29.99,10.0,Calm,Calm,-,N/A,,Overcast,0,2013-10-04 13:55:00
9:15 AM,68.4,64.4,87,30.00,10.0,South,3.5,-,N/A,,Overcast,190,2013-10-04 14:15:00
9:35 AM,68.7,64.9,88,30.00,10.0,South,4.6,-,N/A,,Overcast,180,2013-10-04 14:35:00
9:55 AM,68.7,65.3,89,30.00,5.0,SE,3.5,-,N/A,,Overcast,140,2013-10-04 14:55:00
10:15 AM,68.4,65.1,89,30.00,7.0,Calm,Calm,-,N/A,,Overcast,0,2013-10-04 15:15:00
10:35 AM,69.1,65.5,88,29.99,7.0,Calm,Calm,-,N/A,,Overcast,0,2013-10-04 15:35:00
10:55 AM,69.8,66.2,88,29.99,7.0,Calm,Calm,-,N/A,,Overcast,0,2013-10-04 15:55:00
11:15 AM,70.0,66.2,88,29.99,7.0,Calm,Calm,-,N/A,,Overcast,0,2013-10-04 16:15:00
11:35 AM,71.1,66.6,86,30.00,5.0,SSW,4.6,-,N/A,,Overcast,200,2013-10-04 16:35:00
11:55 AM,71.8,66.7,84,29.99,7.0,Calm,Calm,-,N/A,,Overcast,0,2013-10-04 16:55:00
12:15 PM,72.3,66.6,82,30.00,7.0,Calm,Calm,-,N/A,,Overcast,0,2013-10-04 17:15:00
12:35 PM,73.4,67.1,81,30.00,7.0,Calm,Calm,-,N/A,,Mostly Cloudy,0,2013-10-04 17:35:00
12:55 PM,74.8,67.6,78,29.99,7.0,Calm,Calm,-,N/A,,Mostly Cloudy,0,2013-10-04 17:55:00
1:15 PM,76.5,68.0,75,29.98,7.0,East,3.5,-,N/A,,Scattered Clouds,80,2013-10-04 18:15:00
1:35 PM,77.9,68.2,72,29.98,7.0,Calm,Calm,-,N/A,,Clear,0,2013-10-04 18:35:00
1:55 PM,78.8,68.5,71,29.97,10.0,NE,4.6,-,N/A,,Clear,40,2013-10-04 18:55:00
2:15 PM,79.0,67.5,68,29.96,10.0,Calm,Calm,-,N/A,,Clear,0,2013-10-04 19:15:00
2:35 PM,79.2,68.0,69,29.96,10.0,North,3.5,-,N/A,,Scattered Clouds,10,2013-10-04 19:35:00
2:55 PM,79.2,68.0,69,29.96,10.0,Calm,Calm,-,N/A,,Scattered Clouds,0,2013-10-04 19:55:00
3:15 PM,77.5,67.8,72,29.96,10.0,North,8.1,-,N/A,,Scattered Clouds,360,2013-10-04 20:15:00
3:35 PM,76.1,68.0,76,29.95,7.0,NNE,6.9,-,N/A,,Clear,20,2013-10-04 20:35:00
3:55 PM,76.3,68.0,75,29.94,7.0,North,5.8,-,N/A,,Clear,360,2013-10-04 20:55:00
4:15 PM,76.1,68.0,76,29.94,7.0,NNE,4.6,-,N/A,,Clear,30,2013-10-04 21:15:00
4:35 PM,75.6,68.0,77,29.94,7.0,NE,3.5,-,N/A,,Clear,40,2013-10-04 21:35:00
4:55 PM,76.1,68.2,76,29.94,7.0,ENE,3.5,-,N/A,,Clear,70,2013-10-04 21:55:00
5:15 PM,76.1,68.7,78,29.93,7.0,East,4.6,-,N/A,,Clear,100,2013-10-04 22:15:00
5:35 PM,76.1,68.2,76,29.93,7.0,ENE,3.5,-,N/A,,Clear,60,2013-10-04 22:35:00
5:55 PM,75.6,68.0,77,29.94,7.0,East,3.5,-,N/A,,Clear,80,2013-10-04 22:55:00
6:15 PM,75.2,68.0,78,29.94,7.0,East,3.5,-,N/A,,Clear,100,2013-10-04 23:15:00
6:35 PM,73.6,68.0,83,29.94,7.0,Calm,Calm,-,N/A,,Clear,0,2013-10-04 23:35:00
6:55 PM,73.0,67.6,83,29.94,7.0,ESE,4.6,-,N/A,,Clear,120,2013-10-04 23:55:00
7:15 PM,73.4,68.0,83,29.93,7.0,ESE,6.9,-,N/A,,Clear,120,2013-10-05 00:15:00
7:35 PM,72.7,67.6,84,29.94,5.0,Calm,Calm,-,N/A,,Haze,0,2013-10-05 00:35:00
7:55 PM,71.6,67.1,86,29.94,5.0,ESE,4.6,-,N/A,,Haze,110,2013-10-05 00:55:00
8:15 PM,71.8,67.3,86,29.95,5.0,NNE,5.8,-,N/A,,Haze,20,2013-10-05 01:15:00
8:35 PM,70.5,66.9,88,29.95,5.0,ENE,3.5,-,N/A,,Clear,60,2013-10-05 01:35:00
8:55 PM,69.8,66.7,90,29.96,4.0,NE,4.6,-,N/A,,Clear,50,2013-10-05 01:55:00
9:15 PM,69.3,66.2,90,29.97,3.0,NE,5.8,-,N/A,,Clear,40,2013-10-05 02:15:00
9:35 PM,68.9,65.8,90,29.97,3.0,NE,5.8,-,N/A,,Scattered Clouds,40,2013-10-05 02:35:00
9:55 PM,68.2,65.5,91,29.96,2.5,Calm,Calm,-,N/A,,Scattered Clouds,0,2013-10-05 02:55:00
10:15 PM,67.8,65.5,92,29.96,2.5,Calm,Calm,-,N/A,,Scattered Clouds,0,2013-10-05 03:15:00
10:35 PM,67.5,65.3,93,29.96,2.5,Calm,Calm,-,N/A,,Clear,0,2013-10-05 03:35:00
10:55 PM,66.7,64.9,94,29.96,2.5,Calm,Calm,-,N/A,,Clear,0,2013-10-05 03:55:00
11:15 PM,66.4,64.2,93,29.96,2.0,Calm,Calm,-,N/A,,Clear,0,2013-10-05 04:15:00
11:35 PM,66.2,64.6,94,29.97,2.5,Calm,Calm,-,N/A,,Clear,0,2013-10-05 04:35:00
11:55 PM,66.2,64.6,94,29.96,2.5,Calm,Calm,-,N/A,,Clear,0,2013-10-05 04:55:00